Home > Weather > Hamamatsu > Past weeks

Flag for Japan Weather for the Past 2 Weeks in Hamamatsu, Japan

Now
52 °F

Cool.


Feels Like: 47 °F
Forecast: 28 / 49 °F
Wind: 15 mph from West

Location: Omaezaki

Current Time: Feb 7, 2016 at 3:46:36 PM

Latest Report: Feb 7, 2016 at 3:00 PM


Visibility: 13 mi

Pressure: 29.95 "Hg

Humidity: 19%

Dew point: 11 °F

Location of HamamatsuLocation

Historic Weather in Hamamatsu — Graph

°F

Hamamatsu Temperature Yesterday

Maximum temperature yesterday: 52 °F (at 2:00 PM)
Minimum temperature yesterday: 38 °F (at 11:00 PM)
Average temperature yesterday: 45 °F

High & Low Weather Summary for the Past Weeks

 TemperatureHumidityPressure
High55 °F (Feb 5, 2:00 PM)97% (Jan 29, 3:00 PM)30.32 "Hg (Jan 29, 3:00 PM)
Low26 °F (Jan 25, 5:00 AM)22% (Jan 24, 6:00 PM)29.76 "Hg (Jan 24, 4:00 AM)
Average43 °F59%30.06 "Hg
* Reported Jan 23 2:00 PM — Feb 7 2:00 PM, Hamamatsu, Weather by CustomWeather, © 2016

Note: Actual official high and low records may vary slightly from our data, if they occured in-between our weather recording intervals... More about our weather records

Advertising

Hamamatsu Weather History for the Previous 24 Hours

 ConditionsComfort  
Time TempWeatherWind HumidityBarometerVisibility
2:00 PM
Sun, Feb 7
52 °FCool.12 mph32%29.94 "Hg12 mi
1:00 PM51 °FCool.12 mph41%29.94 "Hg12 mi
9:00 AM43 °FQuite cool.6 mph71%29.95 "Hg12 mi
7:00 AM35 °FChilly.7 mph67%29.91 "Hg12 mi
5:00 AM37 °FChilly.8 mph65%29.86 "Hg12 mi
4:00 AM38 °FChilly.9 mph64%29.85 "Hg12 mi
3:00 AM37 °FChilly.7 mph66%29.85 "Hg12 mi
2:00 AM39 °FChilly.7 mph63%29.85 "Hg12 mi
1:00 AM41 °FQuite cool.8 mph74%29.84 "Hg12 mi
12:00 AM39 °FChilly.9 mph63%29.84 "Hg12 mi
11:00 PM
Sat, Feb 6
38 °FChilly.6 mph63%29.83 "Hg12 mi
10:00 PM40 °FQuite cool.9 mph57%29.83 "Hg12 mi
9:00 PM42 °FQuite cool.12 mph54%29.83 "Hg12 mi
8:00 PM43 °FQuite cool.16 mph53%29.84 "Hg12 mi
7:00 PM44 °FQuite cool.16 mph51%29.81 "Hg12 mi
6:00 PM46 °FCool.15 mph46%29.83 "Hg12 mi
5:00 PM48 °FCool.14 mph44%29.83 "Hg12 mi
4:00 PM49 °FCool.12 mph40%29.83 "Hg12 mi
3:00 PM50 °FCool.17 mph42%29.83 "Hg12 mi
Weather by CustomWeather, © 2016

See weather overviewHow to use our weather pages